When you browse on this site, cookies collect data to enhance your experience and personalize the content and advertising you see.
Visit our Privacy Policy to learn more. By continuing to use the site, you agree to this use of cookies and data.
  • In Netherlands
  • List of Countries
  • For 7 days
  • Water Temperature
  • Satellite Maps
  • Weather Map
  • Weather Widgets
  • user-avatar
    Login

    Hourly Weather Kacevichi

    Today, 16 November, Friday

    Time Temperature Precipitation Wind Pressure Humidity
    00:00 +1°C° 0 mm 1 mps 757 mmHg 94%
    01:00 +1°C° 0 mm 1 mps 757 mmHg 94%
    02:00 -1°C° 0 mm 1 mps 758 mmHg 92%
    03:00 -1°C° 0 mm 1 mps 758 mmHg 91%
    04:00 -1°C° 0 mm 1 mps 758 mmHg 90%
    05:00 -2°C° 0 mm 1 mps 758 mmHg 89%
    06:00 -4°C° 0 mm 2 mps 759 mmHg 88%
    07:00 -5°C° 0 mm 2 mps 759 mmHg 86%
    08:00 -5°C° 0 mm 2 mps 759 mmHg 85%
    09:00 -4°C° 0 mm 2 mps 760 mmHg 81%
    10:00 -1°C° 0 mm 1 mps 760 mmHg 77%
    11:00 0°C° 0 mm 1 mps 760 mmHg 73%
    12:00 0°C° 0 mm 1 mps 760 mmHg 74%
    13:00 +1°C° 0 mm 1 mps 760 mmHg 75%
    14:00 +1°C° 0 mm 1 mps 760 mmHg 76%
    15:00 0°C° 0 mm 1 mps 760 mmHg 77%
    16:00 -1°C° 0 mm 1 mps 760 mmHg 77%
    17:00 -2°C° 0 mm 1 mps 760 mmHg 78%
    18:00 -2°C° 0 mm 1 mps 761 mmHg 77%
    19:00 -3°C° 0 mm 1 mps 761 mmHg 75%
    20:00 -3°C° 0 mm 1 mps 761 mmHg 74%
    21:00 -3°C° 0 mm 1 mps 761 mmHg 72%
    22:00 -3°C° 0 mm 1 mps 761 mmHg 71%
    23:00 -3°C° 0 mm 1 mps 761 mmHg 69%

    Tomorrow, 17 November, Saturday

    Time Temperature Precipitation Wind Pressure Humidity
    00:00 -3°C° 0 mm 1 mps 761 mmHg 67%
    01:00 -4°C° 0 mm 1 mps 761 mmHg 65%
    02:00 -4°C° 0 mm 1 mps 761 mmHg 63%
    03:00 -5°C° 0 mm 0 mps 760 mmHg 62%
    04:00 -5°C° 0 mm 0 mps 760 mmHg 60%
    05:00 -5°C° 0 mm 0 mps 760 mmHg 59%
    06:00 -5°C° 0 mm 0 mps 760 mmHg 58%
    07:00 -5°C° 0 mm 0 mps 760 mmHg 58%
    08:00 -5°C° 0 mm 0 mps 759 mmHg 57%
    09:00 -2°C° 0 mm 1 mps 759 mmHg 57%
    10:00 -1°C° 0 mm 1 mps 759 mmHg 58%
    11:00 +1°C° 0 mm 1 mps 759 mmHg 58%
    12:00 +1°C° 0 mm 1 mps 758 mmHg 60%
    13:00 +1°C° 0 mm 1 mps 758 mmHg 62%
    14:00 -1°C° 0 mm 2 mps 757 mmHg 63%
    15:00 -1°C° 0 mm 2 mps 756 mmHg 65%
    16:00 -2°C° 0 mm 2 mps 756 mmHg 66%
    17:00 -2°C° 0 mm 2 mps 755 mmHg 68%
    18:00 -2°C° 0 mm 3 mps 755 mmHg 70%
    19:00 -2°C° 0 mm 3 mps 754 mmHg 71%
    20:00 -2°C° 0 mm 3 mps 753 mmHg 73%
    21:00 -4°C° 0 mm 3 mps 753 mmHg 77%
    22:00 -4°C° 0 mm 3 mps 752 mmHg 81%
    23:00 -4°C° 0 mm 3 mps 751 mmHg 85%

    Day after tomorrow, 18 November, Sunday

    Time Temperature Precipitation Wind Pressure Humidity
    00:00 -3°C° 0 mm 4 mps 751 mmHg 88%
    01:00 -3°C° 0 mm 4 mps 750 mmHg 90%
    02:00 -2°C° 0 mm 4 mps 749 mmHg 92%
    03:00 -2°C° 0.1 mm 4 mps 748 mmHg 93%
    04:00 -1°C° 0.1 mm 4 mps 747 mmHg 94%
    05:00 -1°C° 0.1 mm 4 mps 746 mmHg 95%
    06:00 -1°C° 0.1 mm 4 mps 746 mmHg 95%
    07:00 -1°C° 0.1 mm 4 mps 745 mmHg 96%
    08:00 -1°C° 0.1 mm 4 mps 745 mmHg 96%
    09:00 0°C° 0.1 mm 3 mps 744 mmHg 96%
    10:00 +1°C° 0.1 mm 3 mps 744 mmHg 97%
    11:00 +1°C° 0.1 mm 3 mps 744 mmHg 97%
    12:00 +1°C° 0.2 mm 3 mps 744 mmHg 97%
    13:00 +1°C° 0.2 mm 3 mps 743 mmHg 97%
    14:00 +1°C° 0.2 mm 3 mps 743 mmHg 97%
    15:00 +1°C° 0.4 mm 3 mps 743 mmHg 97%
    16:00 +1°C° 0.4 mm 3 mps 743 mmHg 97%
    17:00 +1°C° 0.4 mm 3 mps 743 mmHg 97%
    18:00 +1°C° 0.2 mm 3 mps 743 mmHg 96%
    19:00 -1°C° 0.2 mm 4 mps 742 mmHg 95%
    20:00 -1°C° 0.2 mm 4 mps 742 mmHg 94%
    21:00 -1°C° 0.2 mm 4 mps 743 mmHg 94%
    22:00 -1°C° 0.2 mm 4 mps 743 mmHg 94%
    23:00 -1°C° 0.2 mm 4 mps 743 mmHg 94%

    19 November, Monday

    Time Temperature Precipitation Wind Pressure Humidity
    00:00 -1°C° 0.1 mm 4 mps 743 mmHg 94%
    01:00 -1°C° 0.1 mm 4 mps 743 mmHg 94%
    02:00 -1°C° 0.1 mm 4 mps 744 mmHg 94%
    03:00 -1°C° 0.1 mm 4 mps 744 mmHg 95%
    04:00 -1°C° 0.1 mm 4 mps 744 mmHg 95%
    05:00 -1°C° 0.1 mm 4 mps 744 mmHg 95%
    06:00 -1°C° 0.1 mm 4 mps 744 mmHg 95%
    07:00 -1°C° 0.1 mm 4 mps 744 mmHg 94%
    08:00 -1°C° 0.1 mm 4 mps 744 mmHg 94%
    09:00 -1°C° 0.2 mm 4 mps 745 mmHg 94%
    10:00 -1°C° 0.2 mm 4 mps 745 mmHg 93%
    11:00 -1°C° 0.2 mm 4 mps 745 mmHg 93%
    12:00 -1°C° 0.3 mm 4 mps 746 mmHg 93%
    13:00 -1°C° 0.3 mm 4 mps 746 mmHg 93%
    14:00 -1°C° 0.3 mm 4 mps 746 mmHg 94%
    15:00 -1°C° 0.1 mm 4 mps 746 mmHg 94%
    16:00 -1°C° 0.1 mm 4 mps 746 mmHg 93%
    17:00 -1°C° 0.1 mm 4 mps 746 mmHg 93%
    18:00 -1°C° 0.1 mm 3 mps 747 mmHg 93%
    19:00 -1°C° 0.1 mm 3 mps 747 mmHg 93%
    20:00 -1°C° 0.1 mm 3 mps 747 mmHg 93%
    21:00 -1°C° 0.1 mm 3 mps 747 mmHg 93%
    22:00 -2°C° 0.1 mm 3 mps 748 mmHg 93%
    23:00 -2°C° 0.1 mm 3 mps 748 mmHg 93%

    20 November, Tuesday

    Time Temperature Precipitation Wind Pressure Humidity
    00:00 -2°C° 0 mm 3 mps 748 mmHg 92%
    01:00 -4°C° 0 mm 3 mps 748 mmHg 92%
    02:00 -5°C° 0 mm 3 mps 749 mmHg 91%
    03:00 -5°C° 0 mm 3 mps 749 mmHg 91%
    04:00 -6°C° 0 mm 3 mps 749 mmHg 90%
    05:00 -6°C° 0 mm 3 mps 748 mmHg 89%
    06:00 -6°C° 0 mm 3 mps 748 mmHg 89%
    07:00 -6°C° 0 mm 3 mps 749 mmHg 89%
    08:00 -6°C° 0 mm 3 mps 749 mmHg 89%
    09:00 -5°C° 0 mm 3 mps 749 mmHg 89%
    10:00 -4°C° 0 mm 4 mps 749 mmHg 88%
    11:00 -4°C° 0 mm 4 mps 749 mmHg 88%
    12:00 -3°C° 0 mm 4 mps 748 mmHg 88%
    13:00 -3°C° 0 mm 4 mps 748 mmHg 88%
    14:00 -3°C° 0 mm 4 mps 748 mmHg 88%
    15:00 -2°C° 0 mm 3 mps 748 mmHg 89%
    16:00 -2°C° 0 mm 3 mps 748 mmHg 89%
    17:00 -2°C° 0 mm 3 mps 747 mmHg 89%
    18:00 -2°C° 0 mm 3 mps 747 mmHg 89%
    19:00 -2°C° 0 mm 3 mps 747 mmHg 89%
    20:00 -4°C° 0 mm 3 mps 747 mmHg 89%
    21:00 -4°C° 0 mm 3 mps 747 mmHg 89%
    22:00 -3°C° 0 mm 2 mps 747 mmHg 89%
    23:00 -3°C° 0 mm 2 mps 747 mmHg 88%

    21 November, Wednesday

    Time Temperature Precipitation Wind Pressure Humidity
    00:00 -4°C° 0 mm 2 mps 747 mmHg 90%
    01:00 -4°C° 0 mm 2 mps 746 mmHg 91%
    02:00 -4°C° 0 mm 2 mps 746 mmHg 92%
    03:00 -4°C° 0 mm 2 mps 746 mmHg 93%
    04:00 -4°C° 0 mm 2 mps 746 mmHg 93%
    05:00 -4°C° 0 mm 2 mps 746 mmHg 94%
    06:00 -5°C° 0 mm 3 mps 746 mmHg 93%
    07:00 -4°C° 0 mm 3 mps 746 mmHg 93%
    08:00 -4°C° 0 mm 4 mps 746 mmHg 93%
    09:00 -3°C° 0 mm 4 mps 745 mmHg 91%
    10:00 -3°C° 0 mm 4 mps 745 mmHg 90%
    11:00 -2°C° 0 mm 4 mps 745 mmHg 88%
    12:00 -2°C° 0 mm 4 mps 745 mmHg 88%
    13:00 -2°C° 0 mm 4 mps 745 mmHg 88%
    14:00 -2°C° 0 mm 4 mps 744 mmHg 88%
    15:00 -4°C° 0 mm 5 mps 744 mmHg 88%
    16:00 -4°C° 0 mm 5 mps 744 mmHg 89%
    17:00 -5°C° 0 mm 5 mps 743 mmHg 90%
    18:00 -5°C° 0 mm 5 mps 743 mmHg 89%
    19:00 -5°C° 0 mm 5 mps 743 mmHg 88%
    20:00 -5°C° 0 mm 5 mps 743 mmHg 87%
    21:00 -5°C° 0 mm 5 mps 743 mmHg 87%
    22:00 -5°C° 0 mm 5 mps 743 mmHg 87%
    23:00 -6°C° 0 mm 5 mps 743 mmHg 87%
    Show more